User: anonymous   Login
Location: Sevilla
(37.3933°N, 5.9839°W)
Time: 02:34:44
(UTC+02:00)
Language:

deb Explorer IX - Orbit

View from above orbital plane
View from above orbital plane
View from above satellite
View from above satellite

Ground track
Ground track

The orbit data is extracted from the following two-line orbital elements,

1 00085U 61004C   24167.63349853  .00017089  00000-0  22238-2 0  9999
2 00085  38.7426  14.9509 0265363 304.9924  52.6186 14.58506962140165
Epoch (UTC): 15 June 2024 15:12:14
Eccentricity: 0.0265363
inclination: 38.7426°
perigee height: 510 km
apogee height: 886 km
right ascension of ascending node: 14.9509°
argument of perigee: 304.9924°
revolutions per day: 14.58506962
mean anomaly at epoch: 52.6186°
orbit number at epoch: 14016

The dashed part of the orbit path shows where the satellite is in the earth's shadow,  

DLR